Location: Antioch Church
(34.9543°N, 88.5145°W)
Time: 02:16:46
(UTC+00:00)

OAO 2 Rocket - Pass Details

Date: 11 December 2019
Orbit: 676 x 745 km, 35.0° (Epoch: 28 January)

Event Time Altitude Azimuth Distance (km) Brightness Sun altitude
Rises 00:59:14 0° 278° (W) 3,053 7.7 -27.2°
Reaches altitude 10° 01:01:37 10° 277° (W) 2,146 6.7 -27.7°
Enters shadow 01:05:56 62° 246° (WSW) 786 3.7 -28.6°
